San Bernardino, CA

10:24 AM PST on December 06, 2019 (GMT -0800)
San Bernardino International

Weather History for KSBD - May, 2019

Change the Weather History Date:

Saturday, May 11, 2019

  Actual Average Record
Temperature  
Mean Temperature 67 °F -  
Max Temperature 77 °F 77 °F 96 °F (2013)
Min Temperature 57 °F 51 °F 46 °F (2011)
Cooling Degree Days 2    
Growing Degree Days 17 (Base 50)    
Moisture  
Dew Point 52 °F    
Average Humidity 69    
Maximum Humidity 88    
Minimum Humidity 36    
Precipitation  
Precipitation 0.00 in - - ()
Sea Level Pressure  
Sea Level Pressure 29.92 in    
Wind  
Wind Speed 3 mph (WSW)    
Max Wind Speed 12 mph    
Max Gust Speed -    
Visibility 8 miles    
Events Rain    
Averages and records for this station are not official NWS values.
T = Trace of Precipitation, MM = Missing Value Source: NWS Daily Summary

Daily Weather History Graph

Daily Weather History Graph

Search for Another Location

Airport or City:

Astronomy

May. 11, 2019 Rise Set
Actual Time 5:50 AM PDT 7:40 PM PDT
Civil Twilight 5:23 AM PDT 8:08 PM PDT
Nautical Twilight 4:50 AM PDT 8:41 PM PDT
Astronomical Twilight 4:14 AM PDT 9:16 PM PDT
Moon 12:04 PM PDT (5/11) 1:24 AM PDT (5/11)
Length of Visible Light 14h 44m
Length of Day
13h 50m
Waxing Crescent, 47% of the Moon is Illuminated
May 11
Waxing Crescent
May 11
First Quarter
May 18
Full
May 26
Last Quarter
Jun 3
New

Hourly Weather History & Observations

Time (PDT) Temp. Dew Point Humidity Pressure Visibility Wind Dir Wind Speed Gust Speed Precip Events Conditions
12:00 AM 61.7 °F 52.2 °F 71% 29.91 in 10.0 mi West 5.8 mph - N/A Rain Rain
12:21 AM 60.3 °F 53.2 °F 78% 29.91 in 10.0 mi SSW 3.5 mph - 0.01 in Rain Rain
12:40 AM 59.9 °F 53.4 °F 79% 29.92 in 10.0 mi Calm Calm - 0.02 in   Overcast
1:00 AM 59.9 °F 53.6 °F 80% 29.92 in 10.0 mi Calm Calm - N/A   Overcast
1:21 AM 59.9 °F 53.6 °F 80% 29.91 in 10.0 mi WSW 3.5 mph - N/A   Overcast
1:40 AM 59.2 °F 53.6 °F 82% 29.91 in 10.0 mi WSW 3.5 mph - N/A   Overcast
2:00 AM 59.5 °F 53.8 °F 81% 29.92 in 10.0 mi Calm Calm - N/A   Overcast
2:21 AM 59.4 °F 53.6 °F 81% 29.92 in 10.0 mi WSW 4.6 mph - N/A   Overcast
2:40 AM 59.4 °F 53.6 °F 81% 29.92 in 10.0 mi Calm Calm - N/A   Overcast
3:00 AM 59.4 °F 53.6 °F 81% 29.92 in 10.0 mi West 3.5 mph - N/A   Overcast
3:20 AM 59.0 °F 53.6 °F 82% 29.92 in 10.0 mi West 3.5 mph - N/A   Overcast
3:40 AM 59.2 °F 53.6 °F 82% 29.92 in 10.0 mi Calm Calm - N/A   Overcast
4:00 AM 59.2 °F 53.6 °F 82% 29.92 in 10.0 mi WSW 3.5 mph - N/A   Overcast
4:20 AM 59.2 °F 53.4 °F 81% 29.92 in 10.0 mi Calm Calm - N/A   Overcast
4:40 AM 59.0 °F 53.2 °F 81% 29.92 in 10.0 mi West 3.5 mph - N/A   Overcast
5:00 AM 59.0 °F 53.2 °F 81% 29.92 in 10.0 mi West 3.5 mph - N/A   Overcast
5:20 AM 58.6 °F 53.1 °F 82% 29.93 in 10.0 mi West 5.8 mph - N/A   Overcast
5:40 AM 58.1 °F 52.9 °F 83% 29.93 in 10.0 mi WSW 3.5 mph - N/A   Overcast
6:50 AM 57.2 °F 53.6 °F 88% 29.94 in 2.0 mi Calm Calm - N/A Rain Rain
7:48 AM 59.0 °F 53.6 °F 82% 29.95 in 3.0 mi Calm Calm - N/A   Haze
8:20 AM 59.0 °F 53.6 °F 82% 29.95 in 3.0 mi Calm Calm - N/A   Haze
8:48 AM 59.0 °F 53.6 °F 82% 29.95 in 3.0 mi Calm Calm - N/A   Haze
9:48 AM 62.6 °F 53.6 °F 72% 29.96 in 3.0 mi Calm Calm - N/A   Haze
10:50 AM 64.4 °F 53.6 °F 68% 29.96 in 4.0 mi Calm Calm - N/A   Haze
11:50 AM 66.2 °F 53.6 °F 64% 29.95 in 4.0 mi Calm Calm - N/A   Haze
12:50 PM 71.6 °F 53.6 °F 53% 29.93 in 4.0 mi Calm Calm - N/A   Haze
1:50 PM 75.2 °F 53.6 °F 47% 29.91 in 4.0 mi Calm Calm - N/A   Haze
2:50 PM 77.0 °F 51.8 °F 41% 29.88 in 4.0 mi WNW 8.1 mph - N/A   Haze
3:50 PM 75.2 °F 50.0 °F 41% 29.86 in 5.0 mi WNW 5.8 mph - N/A   Haze
4:50 PM 77.0 °F 48.2 °F 36% 29.85 in 5.0 mi West 3.5 mph - N/A   Haze
5:50 PM 75.2 °F 48.2 °F 38% 29.85 in 6.0 mi SW 11.5 mph - N/A   Haze
6:50 PM 75.2 °F 50.0 °F 41% 29.86 in 7.0 mi WSW 11.5 mph - N/A   Scattered Clouds
7:50 PM 69.8 °F 50.0 °F 49% 29.89 in 7.0 mi WSW 9.2 mph - N/A   Scattered Clouds
8:50 PM 66.2 °F 50.0 °F 56% 29.92 in 7.0 mi WSW 11.5 mph - N/A   Scattered Clouds
9:40 PM 65.8 °F 51.1 °F 59% 29.93 in 10.0 mi Calm Calm - N/A   Clear
10:00 PM 65.5 °F 51.1 °F 60% 29.94 in 10.0 mi West 3.5 mph - N/A   Clear
10:20 PM 64.8 °F 51.1 °F 61% 29.94 in 10.0 mi West 3.5 mph - N/A   Clear
10:40 PM 64.6 °F 51.3 °F 62% 29.94 in 10.0 mi Calm Calm - N/A   Clear
11:00 PM 63.7 °F 51.8 °F 65% 29.94 in 10.0 mi Calm Calm - N/A   Clear
11:20 PM 63.5 °F 51.8 °F 66% 29.94 in 10.0 mi Calm Calm - N/A   Clear
11:40 PM 63.5 °F 51.8 °F 66% 29.94 in 10.0 mi Calm Calm - N/A   Clear